Hourly Data Report for October 23, 2016

All times are specified in Local Standard Time (LST). Add 1 hour to adjust for Daylight Saving Time where and when it is observed.

WINNIPEG A CS
MANITOBA

49°55'00.000" N
97°14'58.000" W
238.70 m
502S001
71849
XWG

Download Data

Hourly Data (October 2016)
Hourly Data Report for October 23, 2016
Temp Definition
°C
Dew Point Temp Definition
°C
Rel Hum Definition
%
Wind Dir Definition
10's deg

Wind Spd Definition
km/h
Visibility Definition
km
Stn Press Definition
kPa
Hmdx Definition


Wind Chill Definition


Weather Definition


TIME
00:00 6.5 5.5 94 8 19   98.40     LegendNANA
01:00 6.3 5.5 95 7 13   98.45     LegendNANA
02:00 6.0 5.4 96 6 15   98.52     LegendNANA
03:00 5.7 5.3 97 2 17   98.58     LegendNANA
04:00 5.4 5.0 97 2 10   98.67     LegendNANA
05:00 5.3 4.9 98 1 13   98.78     LegendNANA
06:00 5.1 4.7 97 35 10   98.86     LegendNANA
07:00 5.2 4.8 97 34 12   98.94     LegendNANA
08:00 5.3 4.9 97 33 10   99.05     LegendNANA
09:00 6.0 5.3 96 34 15   99.13     LegendNANA
10:00 6.5 5.2 91 35 14   99.21     LegendNANA
11:00 8.1 5.7 85 35 13   99.27     LegendNANA
12:00 8.3 5.2 81 34 17   99.38     LegendNANA
13:00 9.1 4.5 73 36 12   99.41     LegendNANA
14:00 9.8 4.2 68 34 13   99.44     LegendNANA
15:00 9.6 2.3 60 33 10   99.49     LegendNANA
16:00 9.6 2.1 59 30 15   99.56     LegendNANA
17:00 7.3 3.5 77 31 8   99.57     LegendNANA
18:00 3.9 2.5 91 30 9   99.62     LegendNANA
19:00 2.3 0.6 88 28 11   99.66     LegendNANA
20:00 1.1 -0.5 89 26 11   99.67     LegendNANA
21:00 1.4 -0.4 88 21 4   99.70     LegendNANA
22:00 0.9 -0.4 91 25 8   99.75     LegendNANA
23:00 1.8 0.1 89 25 3   99.79     LegendNANA

Notes on Data Quality.

Legend

  • E = Estimated
  • M = Missing
  • NA = Not Available
  • ‡ = Partner data that is not subject to review by the National Climate Archives
Date modified: